Aeroporto :
LOGIN :

Iscrizione | Disclaimer

   EN    FR    IT 

 










Sommario :    VFR   VFR Marginale   IFR   IFR Intensivo   IFR Molto Intensivo
Visibilità : 
Base nubi : 
>= 8 km
>= 3000ft
5 / 8 km
1000 / 3000 ft
1500m / 5 km
500 / 1000 ft
800 / 1500m
200 / 500 ft
< 800m
< 200 ft
Simboli :   Temporali  Nebbia  Neve Forte  Precipitazioni Forti  Vento > 20 kt
SIGMETs :   Varie  Temporali  Ghiacco  Turbolenza  Onda orograficha  Ceneri Vulcaniche






- Altitudine del aeroporto : 359 ft
- Codice IATA : DEB


LHDC - Debrecen

ULTIMO METAR :
  • 100445Z AUTO 03006KT 350V060 CAVOK 21/17 Q1015 NOSIG

METARs OBSOLETI :
  • 100415Z AUTO 03006KT 360V060 CAVOK 20/17 Q1015 NOSIG
  • 100345Z AUTO 04006KT 010V070 CAVOK 20/16 Q1015 NOSIG
  • 100315Z AUTO 03006KT CAVOK 20/16 Q1015 NOSIG
  • 100245Z AUTO 02007KT 350V050 CAVOK 20/17 Q1015 NOSIG
  • 100215Z AUTO 04005KT CAVOK 20/16 Q1015 NOSIG

TAF TAF LHDC
Valido dal 10 a 03 ore il 10 a 12 ore UTC


100215Z 1003/1012 02007KT CAVOK
PROB30
TEMPO 1010/1012 FEW050CB SCT060TCU



MetMap, La meteo Aeronautica in un colpo d'occhio ! - Copyright ORBIFLY Dicembre 2007 - Disclaimer

ORBIFLY MET'MAP TEAM :

Programmazione e sviluppo : Alexandra Zaïnal
Concezione : Baudouin d'Aumeries
Aiuto per la programmazione : Marc-Olivier Méhu
Supporto tecnico e logistico : Manuel Goepfert
Aiuto per la traduzione : Arnaldo La Scala

Contatto : metmap@orbifly.com




FONTI E CREDITI :

   NOAA